Year,Month,Day,Hour,Minute,Value (Times are PST for temperature in C)
2010,08,29,00,00,11.60
2010,08,29,00,01,11.60
2010,08,29,00,02,11.50
2010,08,29,00,03,11.50
2010,08,29,00,04,11.50
2010,08,29,00,05,11.40
2010,08,29,00,06,11.40
2010,08,29,00,07,11.40
2010,08,29,00,08,11.40
2010,08,29,00,09,11.40
2010,08,29,00,10,11.40
2010,08,29,00,11,11.40
2010,08,29,00,12,11.40
2010,08,29,00,13,11.30
2010,08,29,00,14,11.30
2010,08,29,00,15,11.30
2010,08,29,00,16,11.30
2010,08,29,00,17,11.30
2010,08,29,00,18,11.30
2010,08,29,00,19,11.30
2010,08,29,00,20,11.30
2010,08,29,00,21,11.30
2010,08,29,00,22,11.30
2010,08,29,00,23,11.30
2010,08,29,00,24,11.30
2010,08,29,00,25,11.30
2010,08,29,00,26,11.30
2010,08,29,00,27,11.30
2010,08,29,00,28,11.30
2010,08,29,00,29,11.40
2010,08,29,00,30,11.40
2010,08,29,00,31,11.40
2010,08,29,00,32,11.40
2010,08,29,00,33,11.40
2010,08,29,00,34,11.40
2010,08,29,00,35,11.40
2010,08,29,00,36,11.40
2010,08,29,00,37,11.40
2010,08,29,00,38,11.40
2010,08,29,00,39,11.40
2010,08,29,00,40,11.30
2010,08,29,00,41,11.30
2010,08,29,00,42,11.30
2010,08,29,00,43,11.30
2010,08,29,00,44,11.30
2010,08,29,00,45,11.30
2010,08,29,00,46,11.30
2010,08,29,00,47,11.20
2010,08,29,00,48,11.20
2010,08,29,00,49,11.20
2010,08,29,00,50,11.20
2010,08,29,00,51,11.20
2010,08,29,00,52,11.20
2010,08,29,00,53,11.20
2010,08,29,00,54,11.20
2010,08,29,00,55,11.20
2010,08,29,00,56,11.20
2010,08,29,00,57,11.30
2010,08,29,00,58,11.30
2010,08,29,00,59,11.30
2010,08,29,01,00,11.30
2010,08,29,01,01,11.20
2010,08,29,01,02,11.20
2010,08,29,01,03,11.20
2010,08,29,01,04,11.20
2010,08,29,01,05,11.20
2010,08,29,01,06,11.10
2010,08,29,01,07,11.10
2010,08,29,01,08,11.10
2010,08,29,01,09,11.10
2010,08,29,01,10,11.10
2010,08,29,01,11,11.00
2010,08,29,01,12,11.00
2010,08,29,01,13,11.00
2010,08,29,01,14,10.90
2010,08,29,01,15,10.90
2010,08,29,01,16,10.90
2010,08,29,01,17,10.90
2010,08,29,01,18,10.80
2010,08,29,01,19,10.80
2010,08,29,01,20,10.80
2010,08,29,01,21,10.80
2010,08,29,01,22,10.80
2010,08,29,01,23,10.70
2010,08,29,01,24,10.70
2010,08,29,01,25,10.70
2010,08,29,01,26,10.70
2010,08,29,01,27,10.70
2010,08,29,01,28,10.70
2010,08,29,01,29,10.60
2010,08,29,01,30,10.60
2010,08,29,01,31,10.60
2010,08,29,01,32,10.60
2010,08,29,01,33,10.60
2010,08,29,01,34,10.60
2010,08,29,01,35,10.50
2010,08,29,01,36,10.50
2010,08,29,01,37,10.50
2010,08,29,01,38,10.40
2010,08,29,01,39,10.40
2010,08,29,01,40,10.40
2010,08,29,01,41,10.40
2010,08,29,01,42,10.40
2010,08,29,01,43,10.30
2010,08,29,01,44,10.30
2010,08,29,01,45,10.30
2010,08,29,01,46,10.30
2010,08,29,01,47,10.30
2010,08,29,01,48,10.30
2010,08,29,01,49,10.30
2010,08,29,01,50,10.30
2010,08,29,01,51,10.30
2010,08,29,01,52,10.30
2010,08,29,01,53,10.30
2010,08,29,01,54,10.30
2010,08,29,01,55,10.30
2010,08,29,01,56,10.30
2010,08,29,01,57,10.30
2010,08,29,01,58,10.30
2010,08,29,01,59,10.30
2010,08,29,02,00,10.30
2010,08,29,02,01,10.30
2010,08,29,02,02,10.30
2010,08,29,02,03,10.30
2010,08,29,02,04,10.30
2010,08,29,02,05,10.30
2010,08,29,02,06,10.30
2010,08,29,02,07,10.30
2010,08,29,02,08,10.30
2010,08,29,02,09,10.30
2010,08,29,02,10,10.30
2010,08,29,02,11,10.30
2010,08,29,02,12,10.30
2010,08,29,02,13,10.30
2010,08,29,02,14,10.30
2010,08,29,02,15,10.20
2010,08,29,02,16,10.20
2010,08,29,02,17,10.20
2010,08,29,02,18,10.20
2010,08,29,02,19,10.20
2010,08,29,02,20,10.20
2010,08,29,02,21,10.20
2010,08,29,02,22,10.20
2010,08,29,02,23,10.20
2010,08,29,02,24,10.20
2010,08,29,02,25,10.20
2010,08,29,02,26,10.20
2010,08,29,02,27,10.20
2010,08,29,02,28,10.20
2010,08,29,02,29,10.20
2010,08,29,02,30,10.10
2010,08,29,02,31,10.10
2010,08,29,02,32,10.10
2010,08,29,02,33,10.10
2010,08,29,02,34,10.20
2010,08,29,02,35,10.10
2010,08,29,02,36,10.10
2010,08,29,02,37,10.20
2010,08,29,02,38,10.20
2010,08,29,02,39,10.20
2010,08,29,02,40,10.20
2010,08,29,02,41,10.20
2010,08,29,02,42,10.20
2010,08,29,02,43,10.20
2010,08,29,02,44,10.20
2010,08,29,02,45,10.20
2010,08,29,02,46,10.20
2010,08,29,02,47,10.20
2010,08,29,02,48,10.20
2010,08,29,02,49,10.20
2010,08,29,02,50,10.20
2010,08,29,02,51,10.20
2010,08,29,02,52,10.20
2010,08,29,02,53,10.20
2010,08,29,02,54,10.20
2010,08,29,02,55,10.20
2010,08,29,02,56,10.30
2010,08,29,02,57,10.30
2010,08,29,02,58,10.30
2010,08,29,02,59,10.30
2010,08,29,03,00,10.30
2010,08,29,03,01,10.30
2010,08,29,03,02,10.30
2010,08,29,03,03,10.30
2010,08,29,03,04,10.30
2010,08,29,03,05,10.30
2010,08,29,03,06,10.30
2010,08,29,03,07,10.30
2010,08,29,03,08,10.30
2010,08,29,03,09,10.30
2010,08,29,03,10,10.30
2010,08,29,03,11,10.30
2010,08,29,03,12,10.30
2010,08,29,03,13,10.30
2010,08,29,03,14,10.30
2010,08,29,03,15,10.30
2010,08,29,03,16,10.30
2010,08,29,03,17,10.30
2010,08,29,03,18,10.30
2010,08,29,03,19,10.30
2010,08,29,03,20,10.30
2010,08,29,03,21,10.30
2010,08,29,03,22,10.30
2010,08,29,03,23,10.30
2010,08,29,03,24,10.30
2010,08,29,03,25,10.30
2010,08,29,03,26,10.30
2010,08,29,03,27,10.30
2010,08,29,03,28,10.30
2010,08,29,03,29,10.30
2010,08,29,03,30,10.30
2010,08,29,03,31,10.30
2010,08,29,03,32,10.30
2010,08,29,03,33,10.30
2010,08,29,03,34,10.30
2010,08,29,03,35,10.30
2010,08,29,03,36,10.30
2010,08,29,03,37,10.30
2010,08,29,03,38,10.30
2010,08,29,03,39,10.30
2010,08,29,03,40,10.30
2010,08,29,03,41,10.30
2010,08,29,03,42,10.30
2010,08,29,03,43,10.30
2010,08,29,03,44,10.30
2010,08,29,03,45,10.30
2010,08,29,03,46,10.30
2010,08,29,03,47,10.30
2010,08,29,03,48,10.30
2010,08,29,03,49,10.30
2010,08,29,03,50,10.30
2010,08,29,03,51,10.30
2010,08,29,03,52,10.30
2010,08,29,03,53,10.30
2010,08,29,03,54,10.30
2010,08,29,03,55,10.30
2010,08,29,03,56,10.30
2010,08,29,03,57,10.30
2010,08,29,03,58,10.30
2010,08,29,03,59,10.30
2010,08,29,04,00,10.30
2010,08,29,04,01,10.30
2010,08,29,04,02,10.30
2010,08,29,04,03,10.30
2010,08,29,04,04,10.30
2010,08,29,04,05,10.30
2010,08,29,04,06,10.30
2010,08,29,04,07,10.30
2010,08,29,04,08,10.30
2010,08,29,04,09,10.30
2010,08,29,04,10,10.30
2010,08,29,04,11,10.30
2010,08,29,04,12,10.30
2010,08,29,04,13,10.30
2010,08,29,04,14,10.20
2010,08,29,04,15,10.20
2010,08,29,04,16,10.20
2010,08,29,04,17,10.20
2010,08,29,04,18,10.20
2010,08,29,04,19,10.20
2010,08,29,04,20,10.20
2010,08,29,04,21,10.10
2010,08,29,04,22,10.10
2010,08,29,04,23,10.10
2010,08,29,04,24,10.10
2010,08,29,04,25,10.00
2010,08,29,04,26,10.00
2010,08,29,04,27,10.00
2010,08,29,04,28,10.00
2010,08,29,04,29,9.90
2010,08,29,04,30,9.90
2010,08,29,04,31,9.90
2010,08,29,04,32,9.90
2010,08,29,04,33,9.90
2010,08,29,04,34,9.90
2010,08,29,04,35,9.90
2010,08,29,04,36,9.90
2010,08,29,04,37,9.90
2010,08,29,04,38,9.90
2010,08,29,04,39,9.90
2010,08,29,04,40,9.90
2010,08,29,04,41,9.90
2010,08,29,04,42,9.90
2010,08,29,04,43,9.90
2010,08,29,04,44,9.90
2010,08,29,04,45,9.80
2010,08,29,04,46,9.80
2010,08,29,04,47,9.80
2010,08,29,04,48,9.80
2010,08,29,04,49,9.80
2010,08,29,04,50,9.80
2010,08,29,04,51,9.80
2010,08,29,04,52,9.80
2010,08,29,04,53,9.80
2010,08,29,04,54,9.70
2010,08,29,04,55,9.70
2010,08,29,04,56,9.70
2010,08,29,04,57,9.70
2010,08,29,04,58,9.70
2010,08,29,04,59,9.60
2010,08,29,05,00,9.60
2010,08,29,05,01,9.60
2010,08,29,05,02,9.60
2010,08,29,05,03,9.60
2010,08,29,05,04,9.60
2010,08,29,05,05,9.60
2010,08,29,05,06,9.50
2010,08,29,05,07,9.50
2010,08,29,05,08,9.50
2010,08,29,05,09,9.50
2010,08,29,05,10,9.50
2010,08,29,05,11,9.50
2010,08,29,05,12,9.40
2010,08,29,05,13,9.40
2010,08,29,05,14,9.40
2010,08,29,05,15,9.40
2010,08,29,05,16,9.40
2010,08,29,05,17,9.40
2010,08,29,05,18,9.40
2010,08,29,05,19,9.40
2010,08,29,05,20,9.40
2010,08,29,05,21,9.50
2010,08,29,05,22,9.40
2010,08,29,05,23,9.40
2010,08,29,05,24,9.40
2010,08,29,05,25,9.40
2010,08,29,05,26,9.40
2010,08,29,05,27,9.40
2010,08,29,05,28,9.40
2010,08,29,05,29,9.40
2010,08,29,05,30,9.40
2010,08,29,05,31,9.40
2010,08,29,05,32,9.40
2010,08,29,05,33,9.40
2010,08,29,05,34,9.40
2010,08,29,05,35,9.30
2010,08,29,05,36,9.30
2010,08,29,05,37,9.30
2010,08,29,05,38,9.30
2010,08,29,05,39,9.30
2010,08,29,05,40,9.30
2010,08,29,05,41,9.30
2010,08,29,05,42,9.30
2010,08,29,05,43,9.30
2010,08,29,05,44,9.30
2010,08,29,05,45,9.30
2010,08,29,05,46,9.30
2010,08,29,05,47,9.30
2010,08,29,05,48,9.30
2010,08,29,05,49,9.20
2010,08,29,05,50,9.20
2010,08,29,05,51,9.20
2010,08,29,05,52,9.20
2010,08,29,05,53,9.20
2010,08,29,05,54,9.20
2010,08,29,05,55,9.20
2010,08,29,05,56,9.20
2010,08,29,05,57,9.20
2010,08,29,05,58,9.20
2010,08,29,05,59,9.20
2010,08,29,06,00,9.20
2010,08,29,06,01,9.20
2010,08,29,06,02,9.20
2010,08,29,06,03,9.20
2010,08,29,06,04,9.20
2010,08,29,06,05,9.20
2010,08,29,06,06,9.20
2010,08,29,06,07,9.20
2010,08,29,06,08,9.20
2010,08,29,06,09,9.20
2010,08,29,06,10,9.20
2010,08,29,06,11,9.20
2010,08,29,06,12,9.10
2010,08,29,06,13,9.10
2010,08,29,06,14,9.10
2010,08,29,06,15,9.10
2010,08,29,06,16,9.10
2010,08,29,06,17,9.00
2010,08,29,06,18,9.00
2010,08,29,06,19,8.90
2010,08,29,06,20,8.90
2010,08,29,06,21,8.90
2010,08,29,06,22,8.90
2010,08,29,06,23,8.90
2010,08,29,06,24,8.90
2010,08,29,06,25,8.90
2010,08,29,06,26,8.90
2010,08,29,06,27,8.90
2010,08,29,06,28,8.90
2010,08,29,06,29,8.90
2010,08,29,06,30,8.90
2010,08,29,06,31,8.90
2010,08,29,06,32,8.90
2010,08,29,06,33,8.80
2010,08,29,06,34,8.80
2010,08,29,06,35,8.80
2010,08,29,06,36,8.80
2010,08,29,06,37,8.80
2010,08,29,06,38,8.80
2010,08,29,06,39,8.80
2010,08,29,06,40,8.80
2010,08,29,06,41,8.80
2010,08,29,06,42,8.80
2010,08,29,06,43,8.80
2010,08,29,06,44,8.80
2010,08,29,06,45,8.80
2010,08,29,06,46,8.80
2010,08,29,06,47,8.70
2010,08,29,06,48,8.70
2010,08,29,06,49,8.70
2010,08,29,06,50,8.70
2010,08,29,06,51,8.70
2010,08,29,06,52,8.70
2010,08,29,06,53,8.70
2010,08,29,06,54,8.70
2010,08,29,06,55,8.70
2010,08,29,06,56,8.70
2010,08,29,06,57,8.70
2010,08,29,06,58,8.70
2010,08,29,06,59,8.80
2010,08,29,07,00,8.80
2010,08,29,07,01,8.80
2010,08,29,07,02,8.80
2010,08,29,07,03,8.80
2010,08,29,07,04,8.90
2010,08,29,07,05,8.90
2010,08,29,07,06,9.00
2010,08,29,07,07,9.10
2010,08,29,07,08,9.20
2010,08,29,07,09,9.20
2010,08,29,07,10,9.30
2010,08,29,07,11,9.30
2010,08,29,07,12,9.40
2010,08,29,07,13,9.50
2010,08,29,07,14,9.50
2010,08,29,07,15,9.60
2010,08,29,07,16,9.70
2010,08,29,07,17,9.80
2010,08,29,07,18,9.80
2010,08,29,07,19,9.90
2010,08,29,07,20,9.90
2010,08,29,07,21,9.90
2010,08,29,07,22,10.00
2010,08,29,07,23,10.10
2010,08,29,07,24,10.10
2010,08,29,07,25,10.20
2010,08,29,07,26,10.30
2010,08,29,07,27,10.40
2010,08,29,07,28,10.60
2010,08,29,07,29,10.70
2010,08,29,07,30,10.80
2010,08,29,07,31,10.90
2010,08,29,07,32,11.00
2010,08,29,07,33,11.10
2010,08,29,07,34,11.20
2010,08,29,07,35,11.30
2010,08,29,07,36,11.40
2010,08,29,07,37,11.50
2010,08,29,07,38,11.60
2010,08,29,07,39,11.70
2010,08,29,07,40,11.70
2010,08,29,07,41,11.80
2010,08,29,07,42,11.90
2010,08,29,07,43,12.00
2010,08,29,07,44,12.10
2010,08,29,07,45,12.10
2010,08,29,07,46,12.20
2010,08,29,07,47,12.30
2010,08,29,07,48,12.30
2010,08,29,07,49,12.30
2010,08,29,07,50,12.40
2010,08,29,07,51,12.40
2010,08,29,07,52,12.40
2010,08,29,07,53,12.50
2010,08,29,07,54,12.50
2010,08,29,07,55,12.60
2010,08,29,07,56,12.60
2010,08,29,07,57,12.60
2010,08,29,07,58,12.60
2010,08,29,07,59,12.60
2010,08,29,08,00,12.70
2010,08,29,08,01,12.70
2010,08,29,08,02,12.80
2010,08,29,08,03,12.90
2010,08,29,08,04,13.00
2010,08,29,08,05,13.10
2010,08,29,08,06,13.20
2010,08,29,08,07,13.30
2010,08,29,08,08,13.40
2010,08,29,08,09,13.40
2010,08,29,08,10,13.50
2010,08,29,08,11,13.60
2010,08,29,08,12,13.70
2010,08,29,08,13,13.70
2010,08,29,08,14,13.80
2010,08,29,08,15,13.80
2010,08,29,08,16,13.90
2010,08,29,08,17,13.90
2010,08,29,08,18,14.00
2010,08,29,08,19,14.00
2010,08,29,08,20,14.10
2010,08,29,08,21,14.10
2010,08,29,08,22,14.00
2010,08,29,08,23,13.90
2010,08,29,08,24,13.80
2010,08,29,08,25,13.70
2010,08,29,08,26,13.70
2010,08,29,08,27,13.70
2010,08,29,08,28,13.60
2010,08,29,08,29,13.60
2010,08,29,08,30,13.60
2010,08,29,08,31,13.60
2010,08,29,08,32,13.60
2010,08,29,08,33,13.60
2010,08,29,08,34,13.60
2010,08,29,08,35,13.60
2010,08,29,08,36,13.70
2010,08,29,08,37,13.80
2010,08,29,08,38,13.80
2010,08,29,08,39,13.90
2010,08,29,08,40,13.90
2010,08,29,08,41,14.00
2010,08,29,08,42,14.10
2010,08,29,08,43,14.10
2010,08,29,08,44,14.10
2010,08,29,08,45,14.10
2010,08,29,08,46,14.10
2010,08,29,08,47,14.10
2010,08,29,08,48,14.10
2010,08,29,08,49,14.20
2010,08,29,08,50,14.30
2010,08,29,08,51,14.30
2010,08,29,08,52,14.40
2010,08,29,08,53,14.50
2010,08,29,08,54,14.60
2010,08,29,08,55,14.70
2010,08,29,08,56,14.70
2010,08,29,08,57,14.70
2010,08,29,08,58,14.80
2010,08,29,08,59,14.80
2010,08,29,09,00,14.80
2010,08,29,09,01,14.90
2010,08,29,09,02,15.00
2010,08,29,09,03,15.00
2010,08,29,09,04,15.00
2010,08,29,09,05,15.00
2010,08,29,09,06,15.00
2010,08,29,09,07,15.00
2010,08,29,09,08,15.00
2010,08,29,09,09,15.00
2010,08,29,09,10,15.00
2010,08,29,09,11,15.00
2010,08,29,09,12,15.00
2010,08,29,09,13,15.00
2010,08,29,09,14,15.00
2010,08,29,09,15,15.00
2010,08,29,09,16,15.00
2010,08,29,09,17,15.00
2010,08,29,09,18,15.00
2010,08,29,09,19,15.00
2010,08,29,09,20,15.00
2010,08,29,09,21,15.10
2010,08,29,09,22,15.00
2010,08,29,09,23,15.00
2010,08,29,09,24,15.00
2010,08,29,09,25,15.10
2010,08,29,09,26,15.20
2010,08,29,09,27,15.30
2010,08,29,09,28,15.30
2010,08,29,09,29,15.30
2010,08,29,09,30,15.30
2010,08,29,09,31,15.30
2010,08,29,09,32,15.30
2010,08,29,09,33,15.30
2010,08,29,09,34,15.30
2010,08,29,09,35,15.30
2010,08,29,09,36,15.40
2010,08,29,09,37,15.40
2010,08,29,09,38,15.40
2010,08,29,09,39,15.50
2010,08,29,09,40,15.60
2010,08,29,09,41,15.60
2010,08,29,09,42,15.50
2010,08,29,09,43,15.50
2010,08,29,09,44,15.40
2010,08,29,09,45,15.20
2010,08,29,09,46,15.00
2010,08,29,09,47,15.00
2010,08,29,09,48,15.00
2010,08,29,09,49,15.00
2010,08,29,09,50,15.00
2010,08,29,09,51,15.00
2010,08,29,09,52,14.90
2010,08,29,09,53,14.80
2010,08,29,09,54,14.80
2010,08,29,09,55,14.80
2010,08,29,09,56,14.90
2010,08,29,09,57,14.90
2010,08,29,09,58,15.00
2010,08,29,09,59,15.00
2010,08,29,10,00,15.00
2010,08,29,10,01,15.10
2010,08,29,10,02,15.20
2010,08,29,10,03,15.30
2010,08,29,10,04,15.40
2010,08,29,10,05,15.50
2010,08,29,10,06,15.50
2010,08,29,10,07,15.60
2010,08,29,10,08,15.70
2010,08,29,10,09,15.80
2010,08,29,10,10,15.80
2010,08,29,10,11,15.80
2010,08,29,10,12,15.70
2010,08,29,10,13,15.70
2010,08,29,10,14,15.60
2010,08,29,10,15,15.60
2010,08,29,10,16,15.60
2010,08,29,10,17,15.60
2010,08,29,10,18,15.60
2010,08,29,10,19,15.60
2010,08,29,10,20,15.50
2010,08,29,10,21,15.50
2010,08,29,10,22,15.60
2010,08,29,10,23,15.60
2010,08,29,10,24,15.60
2010,08,29,10,25,15.60
2010,08,29,10,26,15.60
2010,08,29,10,27,15.50
2010,08,29,10,28,15.40
2010,08,29,10,29,15.30
2010,08,29,10,30,15.20
2010,08,29,10,31,15.20
2010,08,29,10,32,15.20
2010,08,29,10,33,15.30
2010,08,29,10,34,15.30
2010,08,29,10,35,15.30
2010,08,29,10,36,15.30
2010,08,29,10,37,15.30
2010,08,29,10,38,15.40
2010,08,29,10,39,15.40
2010,08,29,10,40,15.30
2010,08,29,10,41,15.20
2010,08,29,10,42,15.10
2010,08,29,10,43,15.00
2010,08,29,10,44,15.00
2010,08,29,10,45,15.00
2010,08,29,10,46,15.00
2010,08,29,10,47,15.00
2010,08,29,10,48,15.00
2010,08,29,10,49,15.00
2010,08,29,10,50,15.00
2010,08,29,10,51,15.00
2010,08,29,10,52,14.90
2010,08,29,10,53,14.80
2010,08,29,10,54,14.80
2010,08,29,10,55,14.70
2010,08,29,10,56,14.70
2010,08,29,10,57,14.80
2010,08,29,10,58,14.70
2010,08,29,10,59,14.60
2010,08,29,11,00,14.70
2010,08,29,11,01,14.70
2010,08,29,11,02,14.60
2010,08,29,11,03,14.60
2010,08,29,11,04,14.40
2010,08,29,11,05,14.30
2010,08,29,11,06,14.20
2010,08,29,11,07,14.00
2010,08,29,11,08,14.00
2010,08,29,11,09,14.00
2010,08,29,11,10,13.90
2010,08,29,11,11,13.90
2010,08,29,11,12,13.90
2010,08,29,11,13,13.90
2010,08,29,11,14,13.80
2010,08,29,11,15,13.80
2010,08,29,11,16,13.80
2010,08,29,11,17,13.80
2010,08,29,11,18,13.90
2010,08,29,11,19,13.90
2010,08,29,11,20,13.90
2010,08,29,11,21,14.00
2010,08,29,11,22,14.10
2010,08,29,11,23,14.10
2010,08,29,11,24,14.30
2010,08,29,11,25,14.40
2010,08,29,11,26,14.50
2010,08,29,11,27,14.50
2010,08,29,11,28,14.60
2010,08,29,11,29,14.70
2010,08,29,11,30,14.70
2010,08,29,11,31,14.70
2010,08,29,11,32,14.70
2010,08,29,11,33,14.50
2010,08,29,11,34,14.40
2010,08,29,11,35,14.30
2010,08,29,11,36,14.20
2010,08,29,11,37,14.20
2010,08,29,11,38,14.30
2010,08,29,11,39,14.30
2010,08,29,11,40,14.30
2010,08,29,11,41,14.40
2010,08,29,11,42,14.40
2010,08,29,11,43,14.30
2010,08,29,11,44,14.20
2010,08,29,11,45,14.10
2010,08,29,11,46,14.00
2010,08,29,11,47,13.90
2010,08,29,11,48,13.90
2010,08,29,11,49,13.90
2010,08,29,11,50,13.90
2010,08,29,11,51,14.00
2010,08,29,11,52,14.10
2010,08,29,11,53,14.20
2010,08,29,11,54,14.20
2010,08,29,11,55,14.30
2010,08,29,11,56,14.30
2010,08,29,11,57,14.30
2010,08,29,11,58,14.30
2010,08,29,11,59,14.30
2010,08,29,12,00,14.30
2010,08,29,12,01,14.30
2010,08,29,12,02,14.40
2010,08,29,12,03,14.40
2010,08,29,12,04,14.40
2010,08,29,12,05,14.50
2010,08,29,12,06,14.60
2010,08,29,12,07,14.70
2010,08,29,12,08,14.70
2010,08,29,12,09,14.60
2010,08,29,12,10,14.60
2010,08,29,12,11,14.60
2010,08,29,12,12,14.60
2010,08,29,12,13,14.70
2010,08,29,12,14,14.80
2010,08,29,12,15,14.80
2010,08,29,12,16,14.90
2010,08,29,12,17,15.00
2010,08,29,12,18,15.00
2010,08,29,12,19,15.00
2010,08,29,12,20,15.00
2010,08,29,12,21,15.00
2010,08,29,12,22,15.00
2010,08,29,12,23,15.00
2010,08,29,12,24,15.10
2010,08,29,12,25,15.10
2010,08,29,12,26,15.10
2010,08,29,12,27,15.10
2010,08,29,12,28,15.00
2010,08,29,12,29,15.00
2010,08,29,12,30,15.00
2010,08,29,12,31,14.80
2010,08,29,12,32,14.70
2010,08,29,12,33,14.70
2010,08,29,12,34,14.70
2010,08,29,12,35,14.70
2010,08,29,12,36,14.60
2010,08,29,12,37,14.70
2010,08,29,12,38,14.60
2010,08,29,12,39,14.50
2010,08,29,12,40,14.50
2010,08,29,12,41,14.40
2010,08,29,12,42,14.40
2010,08,29,12,43,14.50
2010,08,29,12,44,14.50
2010,08,29,12,45,14.60
2010,08,29,12,46,14.60
2010,08,29,12,47,14.60
2010,08,29,12,48,14.60
2010,08,29,12,49,14.60
2010,08,29,12,50,14.60
2010,08,29,12,51,14.60
2010,08,29,12,52,14.70
2010,08,29,12,53,14.60
2010,08,29,12,54,14.60
2010,08,29,12,55,14.60
2010,08,29,12,56,14.60
2010,08,29,12,57,14.70
2010,08,29,12,58,14.70
2010,08,29,12,59,14.70
2010,08,29,13,00,14.80
2010,08,29,13,01,14.90
2010,08,29,13,02,15.00
2010,08,29,13,03,15.00
2010,08,29,13,04,15.10
2010,08,29,13,05,15.20
2010,08,29,13,06,15.30
2010,08,29,13,07,15.30
2010,08,29,13,08,15.30
2010,08,29,13,09,15.30
2010,08,29,13,10,15.40
2010,08,29,13,11,15.40
2010,08,29,13,12,15.40
2010,08,29,13,13,15.40
2010,08,29,13,14,15.40
2010,08,29,13,15,15.40
2010,08,29,13,16,15.40
2010,08,29,13,17,15.30
2010,08,29,13,18,15.30
2010,08,29,13,19,15.30
2010,08,29,13,20,15.30
2010,08,29,13,21,15.30
2010,08,29,13,22,15.40
2010,08,29,13,23,15.40
2010,08,29,13,24,15.40
2010,08,29,13,25,15.50
2010,08,29,13,26,15.40
2010,08,29,13,27,15.40
2010,08,29,13,28,15.40
2010,08,29,13,29,15.40
2010,08,29,13,30,15.40
2010,08,29,13,31,15.50
2010,08,29,13,32,15.50
2010,08,29,13,33,15.60
2010,08,29,13,34,15.60
2010,08,29,13,35,15.50
2010,08,29,13,36,15.40
2010,08,29,13,37,15.30
2010,08,29,13,38,15.30
2010,08,29,13,39,15.30
2010,08,29,13,40,15.40
2010,08,29,13,41,15.50
2010,08,29,13,42,15.60
2010,08,29,13,43,15.60
2010,08,29,13,44,15.60
2010,08,29,13,45,15.70
2010,08,29,13,46,15.80
2010,08,29,13,47,15.80
2010,08,29,13,48,15.80
2010,08,29,13,49,15.70
2010,08,29,13,50,15.70
2010,08,29,13,51,15.80
2010,08,29,13,52,15.90
2010,08,29,13,53,15.90
2010,08,29,13,54,15.80
2010,08,29,13,55,15.80
2010,08,29,13,56,15.90
2010,08,29,13,57,15.90
2010,08,29,13,58,15.80
2010,08,29,13,59,15.80
2010,08,29,14,00,15.80
2010,08,29,14,01,15.80
2010,08,29,14,02,15.80
2010,08,29,14,03,15.80
2010,08,29,14,04,15.70
2010,08,29,14,05,15.60
2010,08,29,14,06,15.60
2010,08,29,14,07,15.50
2010,08,29,14,08,15.40
2010,08,29,14,09,15.40
2010,08,29,14,10,15.40
2010,08,29,14,11,15.40
2010,08,29,14,12,15.60
2010,08,29,14,13,15.70
2010,08,29,14,14,15.60
2010,08,29,14,15,15.50
2010,08,29,14,16,15.40
2010,08,29,14,17,15.50
2010,08,29,14,18,15.50
2010,08,29,14,19,15.60
2010,08,29,14,20,15.70
2010,08,29,14,21,15.70
2010,08,29,14,22,15.80
2010,08,29,14,23,15.90
2010,08,29,14,24,16.00
2010,08,29,14,25,16.10
2010,08,29,14,26,16.20
2010,08,29,14,27,16.30
2010,08,29,14,28,16.30
2010,08,29,14,29,16.20
2010,08,29,14,30,16.20
2010,08,29,14,31,16.30
2010,08,29,14,32,16.30
2010,08,29,14,33,16.40
2010,08,29,14,34,16.40
2010,08,29,14,35,16.40
2010,08,29,14,36,16.40
2010,08,29,14,37,16.50
2010,08,29,14,38,16.60
2010,08,29,14,39,16.50
2010,08,29,14,40,16.50
2010,08,29,14,41,16.50
2010,08,29,14,42,16.50
2010,08,29,14,43,16.40
2010,08,29,14,44,16.30
2010,08,29,14,45,16.30
2010,08,29,14,46,16.30
2010,08,29,14,47,16.30
2010,08,29,14,48,16.30
2010,08,29,14,49,16.20
2010,08,29,14,50,16.20
2010,08,29,14,51,16.20
2010,08,29,14,52,16.20
2010,08,29,14,53,16.20
2010,08,29,14,54,16.20
2010,08,29,14,55,16.20
2010,08,29,14,56,16.20
2010,08,29,14,57,16.20
2010,08,29,14,58,16.10
2010,08,29,14,59,16.00
2010,08,29,15,00,15.90
2010,08,29,15,01,15.90
2010,08,29,15,02,16.00
2010,08,29,15,03,16.00
2010,08,29,15,04,16.10
2010,08,29,15,05,16.10
2010,08,29,15,06,16.10
2010,08,29,15,07,16.20
2010,08,29,15,08,16.30
2010,08,29,15,09,16.20
2010,08,29,15,10,16.20
2010,08,29,15,11,16.20
2010,08,29,15,12,16.20
2010,08,29,15,13,16.20
2010,08,29,15,14,16.20
2010,08,29,15,15,16.20
2010,08,29,15,16,16.20
2010,08,29,15,17,16.20
2010,08,29,15,18,16.30
2010,08,29,15,19,16.30
2010,08,29,15,20,16.30
2010,08,29,15,21,16.20
2010,08,29,15,22,16.00
2010,08,29,15,23,15.90
2010,08,29,15,24,15.80
2010,08,29,15,25,15.70
2010,08,29,15,26,15.60
2010,08,29,15,27,15.50
2010,08,29,15,28,15.50
2010,08,29,15,29,15.40
2010,08,29,15,30,15.40
2010,08,29,15,31,15.40
2010,08,29,15,32,15.40
2010,08,29,15,33,15.30
2010,08,29,15,34,15.30
2010,08,29,15,35,15.30
2010,08,29,15,36,15.30
2010,08,29,15,37,15.40
2010,08,29,15,38,15.50
2010,08,29,15,39,15.60
2010,08,29,15,40,15.80
2010,08,29,15,41,16.00
2010,08,29,15,42,16.10
2010,08,29,15,43,16.30
2010,08,29,15,44,16.50
2010,08,29,15,45,16.60
2010,08,29,15,46,16.80
2010,08,29,15,47,17.00
2010,08,29,15,48,17.10
2010,08,29,15,49,17.30
2010,08,29,15,50,17.40
2010,08,29,15,51,17.50
2010,08,29,15,52,17.60
2010,08,29,15,53,17.70
2010,08,29,15,54,17.70
2010,08,29,15,55,17.70
2010,08,29,15,56,17.80
2010,08,29,15,57,17.80
2010,08,29,15,58,17.80
2010,08,29,15,59,17.90
2010,08,29,16,00,18.00
2010,08,29,16,01,18.00
2010,08,29,16,02,18.00
2010,08,29,16,03,18.10
2010,08,29,16,04,18.20
2010,08,29,16,05,18.30
2010,08,29,16,06,18.30
2010,08,29,16,07,18.30
2010,08,29,16,08,18.30
2010,08,29,16,09,18.20
2010,08,29,16,10,18.20
2010,08,29,16,11,18.30
2010,08,29,16,12,18.30
2010,08,29,16,13,18.30
2010,08,29,16,14,18.30
2010,08,29,16,15,18.30
2010,08,29,16,16,18.30
2010,08,29,16,17,18.30
2010,08,29,16,18,18.30
2010,08,29,16,19,18.20
2010,08,29,16,20,18.20
2010,08,29,16,21,18.10
2010,08,29,16,22,18.00
2010,08,29,16,23,18.00
2010,08,29,16,24,17.90
2010,08,29,16,25,17.90
2010,08,29,16,26,17.90
2010,08,29,16,27,17.80
2010,08,29,16,28,17.80
2010,08,29,16,29,17.80
2010,08,29,16,30,17.90
2010,08,29,16,31,17.90
2010,08,29,16,32,18.00
2010,08,29,16,33,18.10
2010,08,29,16,34,18.00
2010,08,29,16,35,18.00
2010,08,29,16,36,18.00
2010,08,29,16,37,18.10
2010,08,29,16,38,18.10
2010,08,29,16,39,18.20
2010,08,29,16,40,18.30
2010,08,29,16,41,18.30
2010,08,29,16,42,18.30
2010,08,29,16,43,18.40
2010,08,29,16,44,18.40
2010,08,29,16,45,18.30
2010,08,29,16,46,18.30
2010,08,29,16,47,18.10
2010,08,29,16,48,17.90
2010,08,29,16,49,17.80
2010,08,29,16,50,17.70
2010,08,29,16,51,17.50
2010,08,29,16,52,17.30
2010,08,29,16,53,17.20
2010,08,29,16,54,17.10
2010,08,29,16,55,17.00
2010,08,29,16,56,17.00
2010,08,29,16,57,17.00
2010,08,29,16,58,17.00
2010,08,29,16,59,17.00
2010,08,29,17,00,17.10
2010,08,29,17,01,17.10
2010,08,29,17,02,17.20
2010,08,29,17,03,17.20
2010,08,29,17,04,17.20
2010,08,29,17,05,17.30
2010,08,29,17,06,17.30
2010,08,29,17,07,17.40
2010,08,29,17,08,17.50
2010,08,29,17,09,17.60
2010,08,29,17,10,17.70
2010,08,29,17,11,17.70
2010,08,29,17,12,17.80
2010,08,29,17,13,17.80
2010,08,29,17,14,17.80
2010,08,29,17,15,17.80
2010,08,29,17,16,17.80
2010,08,29,17,17,17.80
2010,08,29,17,18,17.80
2010,08,29,17,19,17.80
2010,08,29,17,20,17.80
2010,08,29,17,21,17.80
2010,08,29,17,22,17.80
2010,08,29,17,23,17.80
2010,08,29,17,24,17.80
2010,08,29,17,25,17.80
2010,08,29,17,26,17.80